FW7173 Weather Reports


time (UTC)temp
C
wind
direction
speed
KPH
gust
KPH
rain 1hr
cm
rain 24hr
cm
rain mn
cm
humidity
%
barometer
mb
20260504175131 20 318 6.4 24.1 0.00 0.00 0.00 32 1012.0
20260504174630 20 295 4.8 19.3 0.00 0.00 0.00 29 1012.1
20260504174125 20 175 9.7 14.5 0.00 0.00 0.00 31 1012.4
20260504173623 20 214 6.4 11.3 0.00 0.00 0.00 29 1012.3
20260504173120 20 224 4.8 12.9 0.00 0.00 0.00 30 1012.1
20260504172616 20 166 27.4 27.4 0.00 0.00 0.00 30 1012.3
20260504172113 20 236 8.0 12.9 0.00 0.00 0.00 30 1012.3
20260504171609 20 224 11.3 17.7 0.00 0.00 0.00 31 1012.5
20260504171107 20 352 4.8 8.0 0.00 0.00 0.00 32 1012.5
20260504170602 20 280 9.7 25.7 0.00 0.00 0.00 29 1012.7
20260504150946 17 349 4.8 20.9 0.00 0.00 0.00 34 1014.0
20260504150443 17 324 9.7 9.7 0.00 0.00 0.00 36 1013.7
20260504140910 15 193 6.4 12.9 0.00 0.00 0.00 39 1014.0
20260504140406 15 243 1.6 8.0 0.00 0.00 0.00 41 1014.0
20260504130331 12 151 11.3 17.7 0.00 0.00 0.00 45 1014.8
20260504120254 9 162 4.8 6.4 0.00 0.00 0.00 51 1014.8
20260504110218 6 125 6.4 8.0 0.00 0.00 0.00 60 1015.0
20260504100142 5 121 1.6 3.2 0.00 0.00 0.00 67 1014.8
20260504090104 5 33 3.2 3.2 0.00 0.00 0.00 66 1014.8
20260504081535 5 171 4.8 4.8 0.00 0.00 0.00 63 1014.7
20260504081030 5 53 1.6 3.2 0.00 0.00 0.00 64 1014.8
20260504080527 5 66 3.2 3.2 0.00 0.00 0.00 63 1014.4
20260504050340 7 102 3.2 4.8 0.00 0.00 0.00 54 1014.6
20260504045837 7 115 3.2 4.8 0.00 0.00 0.00 54 1014.2
20260504045332 7 193 0.0 4.8 0.00 0.00 0.00 58 1014.3
20260504044829 7 348 0.0 4.8 0.00 0.00 0.00 54 1014.4
20260504044326 7 153 1.6 4.8 0.00 0.00 0.00 54 1014.4
20260504043824 8 37 3.2 6.4 0.00 0.00 0.00 55 1014.4
20260504043320 8 142 0.0 3.2 0.00 0.00 0.00 54 1014.4
20260504042818 8 89 0.0 4.8 0.00 0.00 0.00 51 1014.4
20260504042314 8 189 1.6 4.8 0.00 0.00 0.00 50 1014.4
20260504041810 9 156 1.6 3.2 0.00 0.00 0.00 49 1014.2
20260504041307 10 74 6.4 6.4 0.00 0.00 0.00 45 1014.2
20260504040803 10 93 3.2 3.2 0.00 0.00 0.00 43 1013.9
20260504040301 10 204 1.6 4.8 0.00 0.00 0.00 45 1013.8
20260504035756 10 245 3.2 4.8 0.00 0.00 0.00 43 1013.8
20260504035254 10 82 0.0 3.2 0.00 0.00 0.00 42 1013.7
20260504034751 10 251 3.2 4.8 0.00 0.00 0.00 42 1013.9
20260504034248 10 96 1.6 1.6 0.00 0.00 0.00 42 1013.8
20260504033746 10 143 1.6 4.8 0.00 0.00 0.00 43 1013.6
20260504033243 9 262 3.2 8.0 0.00 0.00 0.00 44 1013.7
20260504032740 8 132 3.2 3.2 0.00 0.00 0.00 47 1013.8
20260504032237 8 97 0.0 3.2 0.00 0.00 0.00 46 1013.8
20260504031733 9 48 3.2 4.8 0.00 0.00 0.00 52 1013.6
20260504031231 10 67 3.2 3.2 0.00 0.00 0.00 45 1013.6
20260504030726 9 178 0.0 3.2 0.00 0.00 0.00 47 1013.7
20260504030224 9 119 3.2 3.2 0.00 0.00 0.00 46 1013.8
20260504025721 9 181 0.0 3.2 0.00 0.00 0.00 45 1013.8
20260504025217 8 33 0.0 3.2 0.00 0.00 0.00 46 1013.7
20260504024714 8 85 1.6 3.2 0.00 0.00 0.00 47 1013.8
20260504024211 8 64 1.6 3.2 0.00 0.00 0.00 48 1013.9
20260504023708 8 264 0.0 3.2 0.00 0.00 0.00 49 1013.7
20260504023203 8 41 0.0 3.2 0.00 0.00 0.00 50 1013.6
20260504022700 8 62 1.6 4.8 0.00 0.00 0.00 50 1013.7
20260504022156 8 54 0.0 3.2 0.00 0.00 0.00 48 1013.7
20260504021654 8 185 1.6 3.2 0.00 0.00 0.00 46 1013.7
20260504021150 8 47 0.0 3.2 0.00 0.00 0.00 48 1013.7
20260504020647 9 43 4.8 4.8 0.00 0.00 0.00 49 1013.8
20260504020143 10 40 3.2 3.2 0.00 0.00 0.00 47 1013.8
20260504015640 10 2 4.8 4.8 0.00 0.00 0.00 45 1013.7
20260504015137 9 211 0.0 4.8 0.00 0.00 0.00 43 1013.7
20260504014632 9 28 1.6 3.2 0.00 0.00 0.00 50 1013.5
20260504014130 8 128 1.6 3.2 0.00 0.00 0.00 47 1013.7
20260504013627 8 57 1.6 3.2 0.00 0.00 0.00 48 1013.6
20260504013124 8 44 4.8 4.8 0.00 0.00 0.00 50 1013.5
20260504012621 8 68 3.2 4.8 0.00 0.00 0.00 49 1013.5
20260504012120 8 121 0.0 3.2 0.00 0.00 0.00 49 1013.6
20260504011616 8 51 3.2 4.8 0.00 0.00 0.00 49 1013.6
20260504011112 9 29 1.6 4.8 0.00 0.00 0.00 49 1013.2
20260504010608 9 38 3.2 4.8 0.00 0.00 0.00 48 1013.3
20260504010104 9 22 0.0 3.2 0.00 0.00 0.00 46 1013.2
20260504005601 10 37 3.2 3.2 0.00 0.00 0.00 47 1013.2
20260504005058 10 37 4.8 4.8 0.00 0.00 0.00 44 1013.1
20260504004556 10 101 0.0 3.2 0.00 0.00 0.00 44 1013.0
20260504004053 10 118 0.0 3.2 0.00 0.00 0.00 44 1013.1
20260504003549 10 49 1.6 3.2 0.00 0.00 0.00 43 1012.9
20260504003046 11 48 3.2 4.8 0.00 0.00 0.00 42 1012.9
20260504002543 11 347 0.0 1.6 0.00 0.00 0.00 40 1013.0
20260504002040 11 41 0.0 3.2 0.00 0.00 0.00 41 1012.6
20260504001538 12 51 3.2 3.2 0.00 0.00 0.00 37 1012.7
20260504001034 12 154 0.0 3.2 0.00 0.00 0.00 36 1012.6
20260504000531 12 142 1.6 3.2 0.00 0.00 0.00 35 1012.6
20260504000028 12 322 3.2 3.2 0.00 0.00 0.00 35 1012.5
20260503235527 12 59 1.6 3.2 0.00 0.00 0.00 34 1012.3
20260503235023 12 230 4.8 6.4 0.00 0.00 0.00 34 1012.5
20260503234521 13 41 1.6 4.8 0.00 0.00 0.00 35 1012.4
20260503234019 13 86 3.2 3.2 0.00 0.00 0.00 36 1012.3
20260503233515 13 63 3.2 3.2 0.00 0.00 0.00 34 1012.2
20260503233011 13 114 0.0 3.2 0.00 0.00 0.00 32 1012.2
20260503232508 13 84 1.6 3.2 0.00 0.00 0.00 33 1012.0
20260503232006 13 105 3.2 6.4 0.00 0.00 0.00 32 1012.2
20260503231504 13 70 4.8 6.4 0.00 0.00 0.00 32 1012.2
20260503231000 13 37 3.2 4.8 0.00 0.00 0.00 31 1012.1
20260503230456 13 194 0.0 3.2 0.00 0.00 0.00 31 1012.2
20260503225954 13 19 3.2 4.8 0.00 0.00 0.00 31 1012.2
20260503225451 13 47 3.2 6.4 0.00 0.00 0.00 31 1012.1
20260503224946 14 41 1.6 8.0 0.00 0.00 0.00 30 1012.0
20260503224443 14 23 4.8 6.4 0.00 0.00 0.00 29 1012.1
20260503223941 14 357 8.0 12.9 0.00 0.00 0.00 29 1012.1
20260503223439 14 2 9.7 9.7 0.00 0.00 0.00 30 1012.2
20260503222934 14 342 4.8 14.5 0.00 0.00 0.00 29 1012.1
20260503222433 14 13 4.8 8.0 0.00 0.00 0.00 29 1012.1
20260503221931 14 10 9.7 9.7 0.00 0.00 0.00 29 1012.1
20260503221429 14 349 8.0 14.5 0.00 0.00 0.00 28 1012.0
20260503220925 15 107 0.0 11.3 0.00 0.00 0.00 28 1011.9
20260503220421 15 232 8.0 11.3 0.00 0.00 0.00 27 1011.9
20260503215919 15 25 6.4 9.7 0.00 0.00 0.00 27 1011.9
20260503215416 15 23 1.6 9.7 0.00 0.00 0.00 26 1011.9
20260503214913 15 121 3.2 6.4 0.00 0.00 0.00 28 1012.0
20260503214410 15 129 4.8 8.0 0.00 0.00 0.00 27 1011.8
20260503213908 15 27 6.4 14.5 0.00 0.00 0.00 27 1011.9
20260503213406 15 11 8.0 9.7 0.00 0.00 0.00 27 1011.7
20260503212902 15 343 8.0 16.1 0.00 0.00 0.00 26 1011.9
20260503212400 15 341 14.5 16.1 0.00 0.00 0.00 27 1011.8
20260503211857 15 334 4.8 6.4 0.00 0.00 0.00 26 1011.7
20260503211354 16 0 19.3 20.9 0.00 0.00 0.00 25 1011.8
20260503210848 15 64 1.6 6.4 0.00 0.00 0.00 27 1011.9
20260503210346 15 10 12.9 14.5 0.00 0.00 0.00 26 1011.8
20260503205841 15 4 8.0 9.7 0.00 0.00 0.00 28 1012.0
20260503205338 15 352 14.5 24.1 0.00 0.00 0.00 25 1011.8
20260503204834 15 339 8.0 9.7 0.00 0.00 0.00 26 1012.0
20260503204332 15 59 4.8 12.9 0.00 0.00 0.00 28 1011.9
20260503203829 15 0 19.3 24.1 0.00 0.00 0.00 26 1011.8
20260503203326 15 336 6.4 16.1 0.00 0.00 0.00 27 1012.0
20260503202823 15 14 3.2 8.0 0.00 0.00 0.00 27 1011.9
20260503202321 15 359 4.8 12.9 0.00 0.00 0.00 28 1012.1
20260503201819 14 0 6.4 16.1 0.00 0.00 0.00 28 1012.1
20260503201316 13 337 9.7 9.7 0.00 0.00 0.00 29 1012.1
20260503200814 13 10 6.4 11.3 0.00 0.00 0.00 30 1012.2
20260503200309 13 37 6.4 20.9 0.00 0.00 0.00 28 1012.3
20260503195807 14 353 8.0 12.9 0.00 0.00 0.00 28 1012.2
20260503195304 13 13 9.7 19.3 0.00 0.00 0.00 28 1012.4
20260503194800 13 355 8.0 17.7 0.00 0.00 0.00 30 1012.6
20260503194256 13 357 4.8 19.3 0.00 0.00 0.00 29 1012.4
20260503193753 13 13 8.0 19.3 0.00 0.00 0.00 29 1012.5
20260503193249 13 2 12.9 19.3 0.00 0.00 0.00 28 1012.6
20260503192745 14 289 4.8 8.0 0.00 0.00 0.00 30 1012.4
20260503192240 13 128 3.2 9.7 0.00 0.00 0.00 30 1012.6
20260503191737 13 354 14.5 22.5 0.00 0.00 0.00 29 1012.6
20260503191234 13 9 9.7 14.5 0.00 0.00 0.00 32 1012.4
20260503190731 13 343 8.0 14.5 0.00 0.00 0.00 31 1012.6
20260503190227 13 22 6.4 12.9 0.00 0.00 0.00 29 1012.9
20260503185725 13 5 11.3 24.1 0.00 0.00 0.00 27 1012.8
20260503185220 13 2 9.7 19.3 0.00 0.00 0.00 28 1012.6
20260503184715 13 2 8.0 17.7 0.00 0.00 0.00 29 1012.5
20260503184211 13 13 3.2 19.3 0.00 0.00 0.00 30 1012.5
20260503183708 13 303 12.9 14.5 0.00 0.00 0.00 29 1012.9
20260503183205 12 179 3.2 19.3 0.00 0.00 0.00 29 1012.7
20260503182704 12 15 3.2 9.7 0.00 0.00 0.00 33 1012.8
20260503182202 12 27 14.5 17.7 0.00 0.00 0.00 31 1012.9
20260503181658 12 0 14.5 25.7 0.00 0.00 0.00 29 1012.9
20260503181155 12 338 8.0 27.4 0.00 0.00 0.00 29 1012.7
20260503180651 12 21 11.3 16.1 0.00 0.00 0.00 33 1012.7
20260503180150 12 14 11.3 30.6 0.00 0.00 0.00 28 1013.0
20260503175647 12 0 6.4 14.5 0.00 0.00 0.00 28 1012.9